Location: Bannatyne
(13.0833°N, 59.5333°W)
Time: 13:36:50
(UTC+00:00)

IUS-13 SRM-1 - Visible Passes

Search period start: 25 January 2020 00:00
Search period end: 04 February 2020 00:00
Orbit: 243 x 22960 km, 27.0° (Epoch: 24 January)

Date Brightness Start Highest point End Pass type
(mag) Time Alt. Az. Time Alt. Az. Time Alt. Az.
25 Jan 8.3 03:04:31 10° WSW 06:51:41 55° WNW 08:43:49 10° E visible
25 Jan 8.3 22:42:30 10° SSW 02:52:16 47° ENE 04:14:39 10° ENE visible
26 Jan 5.9 07:39:59 10° W 11:24:19 90° NNE 11:31:43 10° ESE visible
27 Jan 8.5 01:32:48 10° SW 03:46:51 78° W 07:16:44 10° ENE visible
27 Jan 7.9 21:19:03 10° S 21:48:14 31° ESE 02:29:25 10° ENE visible
28 Jan 7.0 04:46:22 10° W 09:54:21 74° NNE 10:07:08 10° E visible
29 Jan 8.7 00:04:53 10° SW 01:51:20 79° ESE 05:46:57 10° ENE visible
29 Jan 7.6 21:59:01 10° E 00:13:36 - ENE 22:40:50 11° ENE visible
30 Jan 8.3 03:02:30 10° WSW 06:53:21 53° WNW 08:41:15 10° E visible
30 Jan 8.4 22:38:58 10° SSW 23:27:39 56° ESE 04:12:23 10° ENE visible
31 Jan 5.9 09:33:11 12° WNW 11:21:03 80° SSW 11:28:20 10° SE visible
01 Feb 8.4 01:29:23 10° WSW 03:36:49 75° WNW 07:13:36 10° E visible
01 Feb 7.9 21:14:34 10° S 21:42:15 35° ESE 02:27:09 10° ENE visible
02 Feb 6.8 04:45:19 10° W 09:51:03 79° NNE 10:03:14 10° ESE visible
03 Feb 8.7 00:00:28 10° SW 01:26:42 82° ESE 05:43:15 10° ENE visible
03 Feb 7.6 19:53:31 10° SSE 22:43:46 13° ENE 22:49:51 13° ENE visible
